Weather in New Brunswick

United States     40°27′00″N   74°29′04″W
temp.,
°C
wind,
m/s
gust,
m/s
humid.,
%
clouds,
%
prec.,
mm/h
press.,
hPa
HPBL,
m
28 may, sat
sat2823:00+18s31298100 2.0 1009607
02:00+18ssw2698100 5.3 1007496
05:00+18wsw259999 0.2 1006255
08:00+19sw2492100 0.3 1006320
11:00+22wsw467510 1.6 1007937
14:00+22wnw567512 3.4 10071084
17:00+24wnw455217 0.4 10081333
20:00+20wnw25815 0.9 1010144
29 may, sun
sun2923:00+17nw310883 0.1 1013418
02:00+15nnw28855 0.1 1014251
05:00+14nw23845 0.0 101576
08:00+18n126623 0.0 1018295
11:00+23nw014771 0.0 10181303
14:00+25wsw324047 0.0 10181728
17:00+25wsw23410 0.0 10171425
20:00+22sw24635 0.0 101887
30 may, mon
mon3023:00+18s24730 0.0 1019124
02:00+17sw23795 0.0 101993
05:00+16wsw238470 0.0 102074
08:00+20wsw2471100 0.0 1021255
11:00+26wsw355561 0.0 1020837
14:00+30wsw454650 0.0 10181335
17:00+30w464956 0.0 10171257
20:00+26wsw38715 0.0 1018281
31 may, tue
tue3123:00+23wsw298127 0.0 1017212
02:00+22wsw3118414 0.0 1017311
05:00+20wsw288484 0.0 1017187
08:00+25nw25706 0.0 1018236
11:00+31nw3543100 0.0 10181486
14:00+34w353375 0.0 10162274
17:00+34wsw4536100 0.0 10151567
20:00+29w395977 0.0 1015319
1 june, wed
wed123:00+26wnw276321 0.0 1015169
02:00+24se11705 0.0 101523
05:00+22se11770 0.0 101530
08:00+25ese00675 0.0 1015269
11:00+31wsw234715 0.0 1014859
14:00+35wsw493413 0.0 10123155
17:00+34w583538 0.0 10102960
20:00+28wsw395299 0.0 1010366